Voltar ao catálogo

FENGYUN 1C DEB

AtivoSSO
NORAD 29967·DEBRIS·🇨🇳 China

Lançado May 10, 1999 de Taiyuan Satellite Launch Center

Loading…

Próximas Passagens (próximas 24 horas)

TLE

EnvelhecendoSource: Space-Track

Época: Sep 11, 2026, 04:26 UTC

1 29967U 99025KR  26254.18537325  .00002031  00000-0  85842-3 0  9997
2 29967  98.8545 338.0815 0074779 225.1025 164.5921 14.25184656 10699

Acompanhe FENGYUN 1C DEB em tempo real com AllMySat

Download on the App Store